Time,TemperatureF,DewpointF,PressureIn,WindDirection,WindDirectionDegrees,WindSpeedMPH,WindSpeedGustMPH,Humidity,HourlyPrecipIn,Conditions,Clouds,dailyrainin,SoftwareType,DateUTC
2013-05-22 00:03:00,53.4,39.4,30.03,NW,326,8.0,15.0,59,0.00,,,0.00,meteohub,2013-05-22 07:03:00,
2013-05-22 00:09:00,53.4,39.9,30.03,WNW,297,10.0,15.0,60,0.00,,,0.00,meteohub,2013-05-22 07:09:00,
2013-05-22 00:14:00,53.2,39.2,30.03,WNW,292,5.0,15.0,59,0.00,,,0.00,meteohub,2013-05-22 07:14:00,
2013-05-22 00:19:00,53.2,39.7,30.04,NW,308,5.0,15.0,60,0.00,,,0.00,meteohub,2013-05-22 07:19:00,
2013-05-22 00:24:00,53.2,39.2,30.04,NW,324,8.0,12.0,59,0.00,,,0.00,meteohub,2013-05-22 07:24:00,
2013-05-22 00:29:00,53.4,39.0,30.04,North,354,11.0,13.0,58,0.00,,,0.00,meteohub,2013-05-22 07:29:00,
2013-05-22 00:34:00,53.4,39.0,30.04,NW,305,15.0,15.0,58,0.00,,,0.00,meteohub,2013-05-22 07:34:00,
2013-05-22 00:39:00,53.4,38.5,30.04,NW,314,16.0,20.0,57,0.00,,,0.00,meteohub,2013-05-22 07:39:00,
2013-05-22 00:44:00,53.4,38.1,30.04,NNW,328,17.0,27.0,56,0.00,,,0.00,meteohub,2013-05-22 07:44:00,
2013-05-22 00:49:00,53.2,37.9,30.04,NNW,347,10.0,27.0,56,0.00,,,0.00,meteohub,2013-05-22 07:49:00,
2013-05-22 00:54:00,53.2,37.4,30.04,WNW,300,17.0,27.0,55,0.00,,,0.00,meteohub,2013-05-22 07:54:00,
2013-05-22 00:59:00,53.1,36.9,30.04,NNE,14,13.0,26.0,54,0.00,,,0.00,meteohub,2013-05-22 07:59:00,
2013-05-22 01:04:00,53.1,37.4,30.04,NW,326,12.0,27.0,55,0.00,,,0.00,meteohub,2013-05-22 08:04:00,
2013-05-22 01:09:00,53.1,36.3,30.04,NNW,333,14.0,27.0,53,0.00,,,0.00,meteohub,2013-05-22 08:09:00,
2013-05-22 01:14:00,52.9,36.7,30.04,NNW,333,13.0,27.0,54,0.00,,,0.00,meteohub,2013-05-22 08:14:00,
2013-05-22 01:19:00,52.5,36.3,30.04,NW,318,18.0,26.0,54,0.00,,,0.00,meteohub,2013-05-22 08:19:00,
2013-05-22 01:24:00,52.5,36.9,30.04,NNW,335,11.0,26.0,55,0.00,,,0.00,meteohub,2013-05-22 08:24:00,
2013-05-22 01:29:00,52.5,36.9,30.04,NW,311,7.0,26.0,55,0.00,,,0.00,meteohub,2013-05-22 08:29:00,
2013-05-22 01:34:00,52.5,36.3,30.04,NW,326,16.0,26.0,54,0.00,,,0.00,meteohub,2013-05-22 08:34:00,
2013-05-22 01:39:00,52.3,35.8,30.04,WNW,301,19.0,26.0,53,0.00,,,0.00,meteohub,2013-05-22 08:39:00,
2013-05-22 01:44:00,52.3,36.1,30.04,NW,323,25.0,26.0,54,0.00,,,0.00,meteohub,2013-05-22 08:44:00,
2013-05-22 01:49:00,52.3,36.1,30.04,NW,310,9.0,28.0,54,0.00,,,0.00,meteohub,2013-05-22 08:49:00,
2013-05-22 01:54:00,52.2,35.6,30.04,NNW,339,17.0,29.0,53,0.00,,,0.00,meteohub,2013-05-22 08:54:00,
2013-05-22 01:59:00,52.0,35.4,30.04,NNW,338,19.0,29.0,53,0.00,,,0.00,meteohub,2013-05-22 08:59:00,
2013-05-22 02:04:00,52.0,35.4,30.04,NW,317,15.0,29.0,53,0.00,,,0.00,meteohub,2013-05-22 09:04:00,
2013-05-22 02:09:00,51.8,35.2,30.04,NNW,336,20.0,26.0,53,0.00,,,0.00,meteohub,2013-05-22 09:09:00,
2013-05-22 02:14:00,51.8,35.6,30.05,NNW,348,11.0,26.0,54,0.00,,,0.00,meteohub,2013-05-22 09:14:00,
2013-05-22 02:19:00,51.6,35.1,30.05,NNW,330,11.0,26.0,53,0.00,,,0.00,meteohub,2013-05-22 09:19:00,
2013-05-22 02:24:00,51.6,35.1,30.05,NW,320,22.0,28.0,53,0.00,,,0.00,meteohub,2013-05-22 09:24:00,
2013-05-22 02:29:00,51.6,35.1,30.05,NW,322,16.0,29.0,53,0.00,,,0.00,meteohub,2013-05-22 09:29:00,
2013-05-22 02:34:00,51.6,35.1,30.05,NW,320,18.0,29.0,53,0.00,,,0.00,meteohub,2013-05-22 09:34:00,
2013-05-22 02:39:00,51.4,34.3,30.04,NW,309,12.0,29.0,52,0.00,,,0.00,meteohub,2013-05-22 09:39:00,
2013-05-22 02:44:00,51.4,34.9,30.04,NNW,341,13.0,27.0,53,0.00,,,0.00,meteohub,2013-05-22 09:44:00,
2013-05-22 02:49:00,51.3,34.7,30.04,NNW,343,17.0,25.0,53,0.00,,,0.00,meteohub,2013-05-22 09:49:00,
2013-05-22 02:54:00,51.3,34.2,30.04,NW,322,16.0,25.0,52,0.00,,,0.00,meteohub,2013-05-22 09:54:00,
2013-05-22 03:00:00,51.3,34.7,30.04,WNW,288,15.0,25.0,53,0.00,,,0.00,meteohub,2013-05-22 10:00:00,
2013-05-22 03:05:00,51.1,34.5,30.04,NNW,334,12.0,25.0,53,0.00,,,0.00,meteohub,2013-05-22 10:05:00,
2013-05-22 03:10:00,51.1,34.5,30.05,NW,309,8.0,25.0,53,0.00,,,0.00,meteohub,2013-05-22 10:10:00,
2013-05-22 03:15:00,51.1,34.5,30.04,NW,322,14.0,24.0,53,0.00,,,0.00,meteohub,2013-05-22 10:15:00,
2013-05-22 03:20:00,51.1,34.5,30.04,WNW,302,9.0,24.0,53,0.00,,,0.00,meteohub,2013-05-22 10:20:00,
2013-05-22 03:25:00,50.9,34.3,30.04,NNW,337,14.0,24.0,53,0.00,,,0.00,meteohub,2013-05-22 10:25:00,
2013-05-22 03:30:00,50.7,34.2,30.05,NNW,342,17.0,24.0,53,0.00,,,0.00,meteohub,2013-05-22 10:30:00,
2013-05-22 03:35:00,50.5,34.0,30.05,NW,311,18.0,24.0,53,0.00,,,0.00,meteohub,2013-05-22 10:35:00,
2013-05-22 03:40:00,50.5,34.0,30.05,NW,324,22.0,26.0,53,0.00,,,0.00,meteohub,2013-05-22 10:40:00,
2013-05-22 03:45:00,50.5,34.5,30.05,NNW,331,16.0,26.0,54,0.00,,,0.00,meteohub,2013-05-22 10:45:00,
2013-05-22 03:50:00,50.4,34.3,30.05,NNW,339,15.0,26.0,54,0.00,,,0.00,meteohub,2013-05-22 10:50:00,
2013-05-22 03:55:00,50.4,33.8,30.05,WNW,296,8.0,26.0,53,0.00,,,0.00,meteohub,2013-05-22 10:55:00,
2013-05-22 04:00:00,50.2,33.6,30.05,NW,322,21.0,24.0,53,0.00,,,0.00,meteohub,2013-05-22 11:00:00,
2013-05-22 04:05:00,50.2,33.6,30.05,NW,321,10.0,25.0,53,0.00,,,0.00,meteohub,2013-05-22 11:05:00,
2013-05-22 04:10:00,50.2,34.2,30.05,NNW,345,10.0,25.0,54,0.00,,,0.00,meteohub,2013-05-22 11:10:00,
2013-05-22 04:15:00,50.0,34.0,30.05,WNW,297,12.0,25.0,54,0.00,,,0.00,meteohub,2013-05-22 11:15:00,
2013-05-22 04:20:00,50.0,34.5,30.05,NW,309,9.0,25.0,55,0.00,,,0.00,meteohub,2013-05-22 11:20:00,
2013-05-22 04:25:00,50.0,34.0,30.05,NW,325,10.0,19.0,54,0.00,,,0.00,meteohub,2013-05-22 11:25:00,
2013-05-22 04:30:00,49.8,33.8,30.05,NNW,328,15.0,20.0,54,0.00,,,0.00,meteohub,2013-05-22 11:30:00,
2013-05-22 04:35:00,49.8,33.4,30.05,NNW,330,16.0,24.0,53,0.00,,,0.00,meteohub,2013-05-22 11:35:00,
2013-05-22 04:40:00,49.8,33.4,30.06,NW,326,10.0,24.0,53,0.00,,,0.00,meteohub,2013-05-22 11:40:00,
2013-05-22 04:45:00,49.8,33.4,30.05,NW,322,11.0,24.0,53,0.00,,,0.00,meteohub,2013-05-22 11:45:00,
2013-05-22 04:50:00,49.6,33.3,30.05,NW,313,11.0,24.0,53,0.00,,,0.00,meteohub,2013-05-22 11:50:00,
2013-05-22 04:55:00,49.6,32.7,30.05,NNW,335,13.0,21.0,52,0.00,,,0.00,meteohub,2013-05-22 11:55:00,
2013-05-22 05:00:00,49.6,32.7,30.05,North,354,11.0,20.0,52,0.00,,,0.00,meteohub,2013-05-22 12:00:00,
2013-05-22 05:05:00,49.6,32.7,30.05,NNW,330,17.0,20.0,52,0.00,,,0.00,meteohub,2013-05-22 12:05:00,
2013-05-22 05:10:00,49.5,32.5,30.06,NW,322,11.0,21.0,52,0.00,,,0.00,meteohub,2013-05-22 12:10:00,
2013-05-22 05:16:00,49.5,32.5,30.06,NNW,329,14.0,21.0,52,0.00,,,0.00,meteohub,2013-05-22 12:16:00,
2013-05-22 05:21:00,49.5,32.5,30.06,NNW,334,8.0,21.0,52,0.00,,,0.00,meteohub,2013-05-22 12:21:00,
2013-05-22 05:26:00,49.5,33.1,30.06,NW,320,7.0,21.0,53,0.00,,,0.00,meteohub,2013-05-22 12:26:00,
2013-05-22 05:31:00,49.5,33.1,30.06,NW,326,8.0,17.0,53,0.00,,,0.00,meteohub,2013-05-22 12:31:00,
2013-05-22 05:36:00,49.5,33.1,30.06,NW,325,9.0,19.0,53,0.00,,,0.00,meteohub,2013-05-22 12:36:00,
2013-05-22 05:41:00,49.5,32.5,30.06,NNW,336,13.0,19.0,52,0.00,,,0.00,meteohub,2013-05-22 12:41:00,
2013-05-22 05:46:00,49.5,32.5,30.06,NNW,345,14.0,20.0,52,0.00,,,0.00,meteohub,2013-05-22 12:46:00,
2013-05-22 05:51:00,49.5,32.5,30.06,NNW,339,12.0,20.0,52,0.00,,,0.00,meteohub,2013-05-22 12:51:00,
2013-05-22 05:56:00,49.3,32.4,30.06,NNW,341,13.0,20.0,52,0.00,,,0.00,meteohub,2013-05-22 12:56:00,
2013-05-22 06:01:00,49.5,32.5,30.06,NNW,341,16.0,19.0,52,0.00,,,0.00,meteohub,2013-05-22 13:01:00,
2013-05-22 06:06:00,49.3,32.4,30.06,NNW,333,14.0,20.0,52,0.00,,,0.00,meteohub,2013-05-22 13:06:00,
2013-05-22 06:11:00,49.3,32.9,30.06,NNW,339,17.0,20.0,53,0.00,,,0.00,meteohub,2013-05-22 13:11:00,
2013-05-22 06:16:00,49.3,32.4,30.06,NNW,346,14.0,20.0,52,0.00,,,0.00,meteohub,2013-05-22 13:16:00,
2013-05-22 06:21:00,49.5,32.5,30.06,NW,318,10.0,19.0,52,0.00,,,0.00,meteohub,2013-05-22 13:21:00,
2013-05-22 06:26:00,49.5,32.5,30.06,WNW,296,11.0,19.0,52,0.00,,,0.00,meteohub,2013-05-22 13:26:00,
2013-05-22 06:31:00,49.5,32.5,30.06,NNW,333,12.0,19.0,52,0.00,,,0.00,meteohub,2013-05-22 13:31:00,
2013-05-22 06:36:00,49.6,32.2,30.06,NW,321,17.0,21.0,51,0.00,,,0.00,meteohub,2013-05-22 13:36:00,
2013-05-22 06:41:00,49.6,32.2,30.06,North,350,13.0,21.0,51,0.00,,,0.00,meteohub,2013-05-22 13:41:00,
2013-05-22 06:46:00,49.6,32.7,30.06,NNW,336,19.0,21.0,52,0.00,,,0.00,meteohub,2013-05-22 13:46:00,
2013-05-22 06:51:00,49.6,32.7,30.06,NW,320,15.0,22.0,52,0.00,,,0.00,meteohub,2013-05-22 13:51:00,
2013-05-22 06:56:00,49.8,32.9,30.07,NNW,335,12.0,22.0,52,0.00,,,0.00,meteohub,2013-05-22 13:56:00,
2013-05-22 07:01:00,50.0,33.1,30.07,North,349,17.0,22.0,52,0.00,,,0.00,meteohub,2013-05-22 14:01:00,
2013-05-22 07:06:00,50.2,32.7,30.07,NNW,339,16.0,21.0,51,0.00,,,0.00,meteohub,2013-05-22 14:06:00,
2013-05-22 07:11:00,50.4,32.9,30.07,NW,313,7.0,20.0,51,0.00,,,0.00,meteohub,2013-05-22 14:11:00,
2013-05-22 07:16:00,50.4,32.9,30.07,NNW,339,14.0,20.0,51,0.00,,,0.00,meteohub,2013-05-22 14:16:00,
2013-05-22 07:21:00,50.5,33.1,30.07,NNW,339,14.0,19.0,51,0.00,,,0.00,meteohub,2013-05-22 14:21:00,
2013-05-22 07:26:00,50.5,33.1,30.08,NNW,335,16.0,19.0,51,0.00,,,0.00,meteohub,2013-05-22 14:26:00,
2013-05-22 07:31:00,50.5,33.1,30.08,NW,326,12.0,19.0,51,0.00,,,0.00,meteohub,2013-05-22 14:31:00,
2013-05-22 07:36:00,50.7,32.7,30.07,NNW,339,8.0,22.0,50,0.00,,,0.00,meteohub,2013-05-22 14:36:00,
2013-05-22 07:41:00,50.9,32.9,30.07,NNW,341,10.0,22.0,50,0.00,,,0.00,meteohub,2013-05-22 14:41:00,
2013-05-22 07:46:00,51.3,33.3,30.07,NNW,330,6.0,22.0,50,0.00,,,0.00,meteohub,2013-05-22 14:46:00,
2013-05-22 07:51:00,51.3,32.7,30.08,NW,320,11.0,17.0,49,0.00,,,0.00,meteohub,2013-05-22 14:51:00,
2013-05-22 07:56:00,51.4,33.4,30.08,NNW,330,12.0,18.0,50,0.00,,,0.00,meteohub,2013-05-22 14:56:00,
2013-05-22 08:01:00,51.4,32.9,30.08,NNW,342,16.0,18.0,49,0.00,,,0.00,meteohub,2013-05-22 15:01:00,
2013-05-22 08:07:00,51.4,32.9,30.08,NNW,337,18.0,18.0,49,0.00,,,0.00,meteohub,2013-05-22 15:07:00,
2013-05-22 08:12:00,51.6,32.5,30.08,NNW,332,16.0,20.0,48,0.00,,,0.00,meteohub,2013-05-22 15:12:00,
2013-05-22 08:17:00,51.8,32.7,30.08,NNW,347,16.0,20.0,48,0.00,,,0.00,meteohub,2013-05-22 15:17:00,
2013-05-22 08:22:00,52.0,32.9,30.08,NNW,340,12.0,20.0,48,0.00,,,0.00,meteohub,2013-05-22 15:22:00,
2013-05-22 08:27:00,51.6,32.5,30.08,NNW,339,15.0,18.0,48,0.00,,,0.00,meteohub,2013-05-22 15:27:00,
2013-05-22 08:32:00,52.0,33.4,30.08,NW,326,9.0,20.0,49,0.00,,,0.00,meteohub,2013-05-22 15:32:00,
2013-05-22 08:37:00,52.2,33.6,30.08,NNW,331,14.0,20.0,49,0.00,,,0.00,meteohub,2013-05-22 15:37:00,
2013-05-22 08:42:00,52.3,33.3,30.08,NNW,337,8.0,18.0,48,0.00,,,0.00,meteohub,2013-05-22 15:42:00,
2013-05-22 08:47:00,52.3,33.8,30.08,NW,320,13.0,18.0,49,0.00,,,0.00,meteohub,2013-05-22 15:47:00,
2013-05-22 08:52:00,52.3,33.8,30.08,WNW,290,12.0,20.0,49,0.00,,,0.00,meteohub,2013-05-22 15:52:00,
2013-05-22 08:57:00,52.7,33.1,30.08,NNW,342,17.0,23.0,47,0.00,,,0.00,meteohub,2013-05-22 15:57:00,
2013-05-22 09:02:00,52.9,33.3,30.08,NW,310,14.0,23.0,47,0.00,,,0.00,meteohub,2013-05-22 16:02:00,
2013-05-22 09:07:00,53.1,33.4,30.08,WNW,292,14.0,21.0,47,0.00,,,0.00,meteohub,2013-05-22 16:07:00,
2013-05-22 09:12:00,53.1,33.4,30.08,NW,324,16.0,21.0,47,0.00,,,0.00,meteohub,2013-05-22 16:12:00,
2013-05-22 09:17:00,53.1,33.4,30.08,NNW,337,16.0,21.0,47,0.00,,,0.00,meteohub,2013-05-22 16:17:00,
2013-05-22 09:22:00,53.2,34.0,30.08,NNW,339,13.0,21.0,48,0.00,,,0.00,meteohub,2013-05-22 16:22:00,
2013-05-22 09:27:00,53.6,33.8,30.08,North,359,9.0,18.0,47,0.00,,,0.00,meteohub,2013-05-22 16:27:00,
2013-05-22 09:32:00,54.1,33.8,30.08,NW,304,8.0,18.0,46,0.00,,,0.00,meteohub,2013-05-22 16:32:00,
2013-05-22 09:37:00,54.0,32.5,30.08,WNW,299,8.0,15.0,44,0.00,,,0.00,meteohub,2013-05-22 16:37:00,
2013-05-22 09:42:00,54.1,33.3,30.07,NW,316,8.0,19.0,45,0.00,,,0.00,meteohub,2013-05-22 16:42:00,
2013-05-22 09:47:00,54.5,33.1,30.08,WNW,296,12.0,19.0,44,0.00,,,0.00,meteohub,2013-05-22 16:47:00,
2013-05-22 09:52:00,54.7,33.3,30.08,NW,320,13.0,18.0,44,0.00,,,0.00,meteohub,2013-05-22 16:52:00,
2013-05-22 09:57:00,54.9,32.7,30.07,NNW,329,4.0,18.0,43,0.00,,,0.00,meteohub,2013-05-22 16:57:00,
2013-05-22 10:02:00,55.6,32.2,30.07,NW,310,11.0,18.0,41,0.00,,,0.00,meteohub,2013-05-22 17:02:00,
2013-05-22 10:07:00,55.9,31.3,30.07,WNW,294,10.0,18.0,39,0.00,,,0.00,meteohub,2013-05-22 17:07:00,
2013-05-22 10:12:00,56.1,32.2,30.07,NW,326,8.0,18.0,40,0.00,,,0.00,meteohub,2013-05-22 17:12:00,
2013-05-22 10:17:00,56.5,31.8,30.07,NNW,330,7.0,20.0,39,0.00,,,0.00,meteohub,2013-05-22 17:17:00,
2013-05-22 10:22:00,56.5,31.8,30.06,NW,314,7.0,20.0,39,0.00,,,0.00,meteohub,2013-05-22 17:22:00,
2013-05-22 10:27:00,56.7,30.0,30.06,WNW,286,13.0,19.0,36,0.00,,,0.00,meteohub,2013-05-22 17:27:00,
2013-05-22 10:33:00,57.2,31.1,30.06,NNW,345,7.0,19.0,37,0.00,,,0.00,meteohub,2013-05-22 17:33:00,
2013-05-22 10:38:00,57.6,30.7,30.06,North,354,8.0,19.0,36,0.00,,,0.00,meteohub,2013-05-22 17:38:00,
2013-05-22 10:43:00,57.4,31.3,30.06,North,354,11.0,19.0,37,0.00,,,0.00,meteohub,2013-05-22 17:43:00,
2013-05-22 10:48:00,57.6,30.0,30.06,NW,312,6.0,17.0,35,0.00,,,0.00,meteohub,2013-05-22 17:48:00,
2013-05-22 10:53:00,57.9,30.4,30.06,NW,326,14.0,17.0,35,0.00,,,0.00,meteohub,2013-05-22 17:53:00,
2013-05-22 10:58:00,58.5,29.5,30.06,NW,322,11.0,17.0,33,0.00,,,0.00,meteohub,2013-05-22 17:58:00,
2013-05-22 11:03:00,58.6,29.7,30.06,WNW,303,8.0,16.0,33,0.00,,,0.00,meteohub,2013-05-22 18:03:00,
2013-05-22 11:08:00,58.6,31.1,30.06,NW,326,10.0,16.0,35,0.00,,,0.00,meteohub,2013-05-22 18:08:00,
2013-05-22 11:13:00,59.0,30.7,30.06,North,11,8.0,16.0,34,0.00,,,0.00,meteohub,2013-05-22 18:13:00,
2013-05-22 11:18:00,59.5,28.9,30.06,NNW,334,7.0,16.0,31,0.00,,,0.00,meteohub,2013-05-22 18:18:00,
2013-05-22 11:23:00,59.7,28.2,30.06,WNW,299,11.0,16.0,30,0.00,,,0.00,meteohub,2013-05-22 18:23:00,
2013-05-22 11:28:00,60.4,28.0,30.05,WNW,298,5.0,14.0,29,0.00,,,0.00,meteohub,2013-05-22 18:28:00,
2013-05-22 11:33:00,61.0,26.8,30.05,WNW,289,10.0,14.0,27,0.00,,,0.00,meteohub,2013-05-22 18:33:00,
2013-05-22 11:38:00,61.0,25.9,30.05,North,354,8.0,15.0,26,0.00,,,0.00,meteohub,2013-05-22 18:38:00,
2013-05-22 11:43:00,61.0,26.8,30.05,WNW,282,9.0,15.0,27,0.00,,,0.00,meteohub,2013-05-22 18:43:00,
2013-05-22 11:48:00,61.2,27.9,30.05,WNW,294,7.0,15.0,28,0.00,,,0.00,meteohub,2013-05-22 18:48:00,
2013-05-22 11:53:00,61.0,25.0,30.05,NW,311,10.0,12.0,25,0.00,,,0.00,meteohub,2013-05-22 18:53:00,
2013-05-22 11:58:00,60.6,21.6,30.04,West,274,11.0,16.0,22,0.00,,,0.00,meteohub,2013-05-22 18:58:00,
2013-05-22 12:03:00,61.2,23.0,30.04,West,263,9.0,16.0,23,0.00,,,0.00,meteohub,2013-05-22 19:03:00,
2013-05-22 12:08:00,61.5,24.4,30.04,WNW,303,7.0,16.0,24,0.00,,,0.00,meteohub,2013-05-22 19:08:00,
2013-05-22 12:13:00,61.3,23.2,30.04,NE,34,0.0,13.0,23,0.00,,,0.00,meteohub,2013-05-22 19:13:00,
2013-05-22 12:18:00,62.2,26.1,30.04,NW,306,7.0,13.0,25,0.00,,,0.00,meteohub,2013-05-22 19:18:00,
2013-05-22 12:23:00,62.2,23.9,30.04,NNE,16,8.0,12.0,23,0.00,,,0.00,meteohub,2013-05-22 19:23:00,
2013-05-22 12:28:00,62.2,25.0,30.04,NNE,31,5.0,12.0,24,0.00,,,0.00,meteohub,2013-05-22 19:28:00,
2013-05-22 12:33:00,62.6,27.1,30.03,North,4,4.0,12.0,26,0.00,,,0.00,meteohub,2013-05-22 19:33:00,
2013-05-22 12:38:00,62.2,27.9,30.03,NNE,12,1.0,12.0,27,0.00,,,0.00,meteohub,2013-05-22 19:38:00,
2013-05-22 12:43:00,62.8,28.2,30.03,NW,317,3.0,12.0,27,0.00,,,0.00,meteohub,2013-05-22 19:43:00,
2013-05-22 12:48:00,62.8,29.1,30.03,West,269,5.0,12.0,28,0.00,,,0.00,meteohub,2013-05-22 19:48:00,
2013-05-22 12:53:00,62.2,34.2,30.02,WSW,253,14.0,14.0,35,0.00,,,0.00,meteohub,2013-05-22 19:53:00,
2013-05-22 12:59:00,62.2,34.2,30.02,WNW,282,12.0,17.0,35,0.00,,,0.00,meteohub,2013-05-22 19:59:00,
2013-05-22 13:04:00,62.2,33.4,30.02,West,266,9.0,17.0,34,0.00,,,0.00,meteohub,2013-05-22 20:04:00,
2013-05-22 13:09:00,62.2,34.2,30.02,WSW,256,11.0,18.0,35,0.00,,,0.00,meteohub,2013-05-22 20:09:00,
2013-05-22 13:14:00,62.8,34.7,30.02,WNW,302,4.0,18.0,35,0.00,,,0.00,meteohub,2013-05-22 20:14:00,
2013-05-22 13:19:00,63.0,35.6,30.02,WNW,298,7.0,18.0,36,0.00,,,0.00,meteohub,2013-05-22 20:19:00,
2013-05-22 13:24:00,62.4,35.1,30.02,West,264,7.0,15.0,36,0.00,,,0.00,meteohub,2013-05-22 20:24:00,
2013-05-22 13:29:00,62.8,34.0,30.02,West,272,8.0,16.0,34,0.00,,,0.00,meteohub,2013-05-22 20:29:00,
2013-05-22 13:34:00,62.4,32.9,30.02,WNW,293,9.0,17.0,33,0.00,,,0.00,meteohub,2013-05-22 20:34:00,
2013-05-22 13:39:00,62.4,35.1,30.01,WNW,301,12.0,19.0,36,0.00,,,0.00,meteohub,2013-05-22 20:39:00,
2013-05-22 13:44:00,62.4,35.1,30.01,WNW,287,15.0,19.0,36,0.00,,,0.00,meteohub,2013-05-22 20:44:00,
2013-05-22 13:49:00,63.9,35.6,30.01,WNW,283,8.0,21.0,35,0.00,,,0.00,meteohub,2013-05-22 20:49:00,
2013-05-22 13:54:00,63.0,34.2,30.01,West,271,11.0,21.0,34,0.00,,,0.00,meteohub,2013-05-22 20:54:00,
2013-05-22 13:59:00,62.8,34.0,30.01,West,268,6.0,21.0,34,0.00,,,0.00,meteohub,2013-05-22 20:59:00,
2013-05-22 14:04:00,63.3,33.8,30.01,West,269,13.0,18.0,33,0.00,,,0.00,meteohub,2013-05-22 21:04:00,
2013-05-22 14:09:00,63.0,33.4,30.01,WNW,296,13.0,19.0,33,0.00,,,0.00,meteohub,2013-05-22 21:09:00,
2013-05-22 14:14:00,63.5,33.8,30.01,WSW,244,14.0,19.0,33,0.00,,,0.00,meteohub,2013-05-22 21:14:00,
2013-05-22 14:19:00,63.3,32.2,30.01,West,269,8.0,19.0,31,0.00,,,0.00,meteohub,2013-05-22 21:19:00,
2013-05-22 14:24:00,63.9,33.4,30.01,WSW,251,11.0,16.0,32,0.00,,,0.00,meteohub,2013-05-22 21:24:00,
2013-05-22 14:29:00,63.7,34.7,30.00,NW,304,12.0,15.0,34,0.00,,,0.00,meteohub,2013-05-22 21:29:00,
2013-05-22 14:35:00,63.9,35.6,30.00,West,279,12.0,18.0,35,0.00,,,0.00,meteohub,2013-05-22 21:35:00,
2013-05-22 14:40:00,63.9,35.6,30.00,WNW,287,13.0,18.0,35,0.00,,,0.00,meteohub,2013-05-22 21:40:00,
2013-05-22 14:45:00,63.5,36.1,30.00,West,264,12.0,18.0,36,0.00,,,0.00,meteohub,2013-05-22 21:45:00,
2013-05-22 14:50:00,63.3,36.0,30.00,WSW,244,13.0,18.0,36,0.00,,,0.00,meteohub,2013-05-22 21:50:00,
2013-05-22 14:55:00,63.3,35.2,30.00,West,281,10.0,18.0,35,0.00,,,0.00,meteohub,2013-05-22 21:55:00,
2013-05-22 15:00:00,63.1,35.8,30.00,West,270,8.0,18.0,36,0.00,,,0.00,meteohub,2013-05-22 22:00:00,
2013-05-22 15:05:00,63.9,36.3,30.00,West,276,14.0,18.0,36,0.00,,,0.00,meteohub,2013-05-22 22:05:00,
2013-05-22 15:10:00,63.0,36.3,29.99,WSW,251,12.0,17.0,37,0.00,,,0.00,meteohub,2013-05-22 22:10:00,
2013-05-22 15:15:00,62.8,36.1,29.99,West,269,10.0,18.0,37,0.00,,,0.00,meteohub,2013-05-22 22:15:00,
2013-05-22 15:20:00,62.8,36.1,29.99,WSW,254,17.0,19.0,37,0.00,,,0.00,meteohub,2013-05-22 22:20:00,
2013-05-22 15:25:00,62.4,35.8,29.99,WNW,291,12.0,21.0,37,0.00,,,0.00,meteohub,2013-05-22 22:25:00,
2013-05-22 15:30:00,63.1,35.8,29.99,West,265,16.0,21.0,36,0.00,,,0.00,meteohub,2013-05-22 22:30:00,
2013-05-22 15:35:00,63.0,35.6,29.99,West,267,13.0,21.0,36,0.00,,,0.00,meteohub,2013-05-22 22:35:00,
2013-05-22 15:40:00,62.2,34.2,29.99,WNW,289,17.0,20.0,35,0.00,,,0.00,meteohub,2013-05-22 22:40:00,
2013-05-22 15:45:00,63.0,35.6,29.99,WNW,300,13.0,21.0,36,0.00,,,0.00,meteohub,2013-05-22 22:45:00,
2013-05-22 15:50:00,63.0,35.6,29.99,WNW,289,13.0,22.0,36,0.00,,,0.00,meteohub,2013-05-22 22:50:00,
2013-05-22 15:55:00,62.4,35.8,29.99,WNW,287,15.0,22.0,37,0.00,,,0.00,meteohub,2013-05-22 22:55:00,
2013-05-22 16:00:00,62.2,34.9,29.98,West,272,9.0,22.0,36,0.00,,,0.00,meteohub,2013-05-22 23:00:00,
2013-05-22 16:05:00,62.2,37.0,29.98,West,271,15.0,19.0,39,0.00,,,0.00,meteohub,2013-05-22 23:05:00,
2013-05-22 16:10:00,62.6,37.9,29.98,West,272,13.0,19.0,40,0.00,,,0.00,meteohub,2013-05-22 23:10:00,
2013-05-22 16:15:00,62.6,37.2,29.98,WNW,295,14.0,19.0,39,0.00,,,0.00,meteohub,2013-05-22 23:15:00,
2013-05-22 16:20:00,62.8,38.7,29.98,WNW,284,14.0,19.0,41,0.00,,,0.00,meteohub,2013-05-22 23:20:00,
2013-05-22 16:25:00,62.8,37.4,29.98,WNW,296,12.0,21.0,39,0.00,,,0.00,meteohub,2013-05-22 23:25:00,
2013-05-22 16:30:00,62.2,37.6,29.98,WNW,300,17.0,21.0,40,0.00,,,0.00,meteohub,2013-05-22 23:30:00,
2013-05-22 16:35:00,61.7,39.0,29.97,WNW,288,13.0,22.0,43,0.00,,,0.00,meteohub,2013-05-22 23:35:00,
2013-05-22 16:40:00,61.7,38.3,29.97,WSW,250,10.0,22.0,42,0.00,,,0.00,meteohub,2013-05-22 23:40:00,
2013-05-22 16:45:00,61.5,39.4,29.97,West,261,14.0,22.0,44,0.00,,,0.00,meteohub,2013-05-22 23:45:00,
2013-05-22 16:50:00,61.3,38.7,29.97,West,265,15.0,22.0,43,0.00,,,0.00,meteohub,2013-05-22 23:50:00,
2013-05-22 16:55:00,61.5,39.9,29.97,West,272,14.0,22.0,45,0.00,,,0.00,meteohub,2013-05-22 23:55:00,
2013-05-22 17:00:00,61.2,39.0,29.97,WNW,282,17.0,22.0,44,0.00,,,0.00,meteohub,2013-05-23 00:00:00,
2013-05-22 17:05:00,61.3,38.7,29.97,WNW,283,14.0,22.0,43,0.00,,,0.00,meteohub,2013-05-23 00:05:00,
2013-05-22 17:10:00,60.8,38.1,29.97,WSW,258,15.0,22.0,43,0.00,,,0.00,meteohub,2013-05-23 00:10:00,
2013-05-22 17:15:00,61.2,39.0,29.97,West,276,16.0,22.0,44,0.00,,,0.00,meteohub,2013-05-23 00:15:00,
2013-05-22 17:21:00,61.3,39.2,29.97,WNW,283,13.0,22.0,44,0.00,,,0.00,meteohub,2013-05-23 00:21:00,
2013-05-22 17:26:00,61.0,40.6,29.97,West,268,15.0,21.0,47,0.00,,,0.00,meteohub,2013-05-23 00:26:00,
2013-05-22 17:31:00,61.0,40.6,29.96,West,266,11.0,21.0,47,0.00,,,0.00,meteohub,2013-05-23 00:31:00,
2013-05-22 17:36:00,60.4,40.1,29.96,West,280,12.0,22.0,47,0.00,,,0.00,meteohub,2013-05-23 00:36:00,
2013-05-22 17:41:00,60.4,41.2,29.96,West,278,12.0,22.0,49,0.00,,,0.00,meteohub,2013-05-23 00:41:00,
2013-05-22 17:46:00,60.3,41.0,29.96,WNW,285,19.0,22.0,49,0.00,,,0.00,meteohub,2013-05-23 00:46:00,
2013-05-22 17:51:00,60.3,41.5,29.96,West,263,13.0,21.0,50,0.00,,,0.00,meteohub,2013-05-23 00:51:00,
2013-05-22 17:56:00,60.3,41.0,29.96,West,280,14.0,21.0,49,0.00,,,0.00,meteohub,2013-05-23 00:56:00,
2013-05-22 18:01:00,60.1,41.9,29.96,WNW,285,17.0,21.0,51,0.00,,,0.00,meteohub,2013-05-23 01:01:00,
2013-05-22 18:06:00,60.1,41.4,29.96,West,278,17.0,18.0,50,0.00,,,0.00,meteohub,2013-05-23 01:06:00,
2013-05-22 18:11:00,59.7,41.5,29.96,West,276,14.0,19.0,51,0.00,,,0.00,meteohub,2013-05-23 01:11:00,
2013-05-22 18:16:00,60.1,41.4,29.96,West,279,8.0,19.0,50,0.00,,,0.00,meteohub,2013-05-23 01:16:00,
2013-05-22 18:21:00,60.1,41.9,29.96,West,278,10.0,20.0,51,0.00,,,0.00,meteohub,2013-05-23 01:21:00,
2013-05-22 18:26:00,59.7,42.1,29.96,WNW,282,12.0,20.0,52,0.00,,,0.00,meteohub,2013-05-23 01:26:00,
2013-05-22 18:31:00,59.0,41.9,29.96,West,260,10.0,21.0,53,0.00,,,0.00,meteohub,2013-05-23 01:31:00,
2013-05-22 18:36:00,59.0,42.4,29.96,West,266,13.0,21.0,54,0.00,,,0.00,meteohub,2013-05-23 01:36:00,
2013-05-22 18:41:00,58.5,42.8,29.95,West,279,14.0,21.0,56,0.00,,,0.00,meteohub,2013-05-23 01:41:00,
2013-05-22 18:46:00,58.3,42.3,29.96,West,280,17.0,22.0,55,0.00,,,0.00,meteohub,2013-05-23 01:46:00,
2013-05-22 18:51:00,58.1,42.4,29.96,WNW,296,15.0,22.0,56,0.00,,,0.00,meteohub,2013-05-23 01:51:00,
2013-05-22 18:56:00,57.7,42.6,29.95,West,272,11.0,22.0,57,0.00,,,0.00,meteohub,2013-05-23 01:56:00,
2013-05-22 19:01:00,57.7,42.6,29.96,NW,308,14.0,22.0,57,0.00,,,0.00,meteohub,2013-05-23 02:01:00,
2013-05-22 19:06:00,57.6,42.4,29.96,West,276,8.0,21.0,57,0.00,,,0.00,meteohub,2013-05-23 02:06:00,
2013-05-22 19:11:00,57.0,42.8,29.95,West,280,17.0,21.0,59,0.00,,,0.00,meteohub,2013-05-23 02:11:00,
2013-05-22 19:16:00,57.0,42.8,29.95,West,278,16.0,18.0,59,0.00,,,0.00,meteohub,2013-05-23 02:16:00,
2013-05-22 19:21:00,56.7,42.4,29.96,WNW,287,18.0,19.0,59,0.00,,,0.00,meteohub,2013-05-23 02:21:00,
2013-05-22 19:26:00,56.3,42.6,29.96,West,265,14.0,21.0,60,0.00,,,0.00,meteohub,2013-05-23 02:26:00,
2013-05-22 19:31:00,55.9,42.6,29.96,West,268,16.0,23.0,61,0.00,,,0.00,meteohub,2013-05-23 02:31:00,
2013-05-22 19:37:00,55.8,42.4,29.96,WNW,293,13.0,23.0,61,0.00,,,0.00,meteohub,2013-05-23 02:37:00,
2013-05-22 19:42:00,55.9,42.6,29.96,West,270,9.0,22.0,61,0.00,,,0.00,meteohub,2013-05-23 02:42:00,
2013-05-22 19:47:00,55.8,43.0,29.96,West,277,9.0,18.0,62,0.00,,,0.00,meteohub,2013-05-23 02:47:00,
2013-05-22 19:52:00,55.6,43.2,29.96,NW,316,15.0,18.0,63,0.00,,,0.00,meteohub,2013-05-23 02:52:00,
2013-05-22 19:57:00,55.0,43.2,29.96,WNW,282,11.0,18.0,64,0.00,,,0.00,meteohub,2013-05-23 02:57:00,
2013-05-22 20:02:00,54.9,43.3,29.96,WNW,291,12.0,18.0,65,0.00,,,0.00,meteohub,2013-05-23 03:02:00,
2013-05-22 20:07:00,54.7,43.5,29.96,WNW,293,12.0,18.0,66,0.00,,,0.00,meteohub,2013-05-23 03:07:00,
2013-05-22 20:12:00,54.3,43.2,29.96,WNW,295,16.0,18.0,66,0.00,,,0.00,meteohub,2013-05-23 03:12:00,
2013-05-22 20:17:00,54.1,43.0,29.96,NW,314,11.0,18.0,66,0.00,,,0.00,meteohub,2013-05-23 03:17:00,
2013-05-22 20:22:00,54.0,43.3,29.96,WNW,291,8.0,18.0,67,0.00,,,0.00,meteohub,2013-05-23 03:22:00,
2013-05-22 20:27:00,54.0,43.3,29.96,WNW,293,12.0,18.0,67,0.00,,,0.00,meteohub,2013-05-23 03:27:00,
2013-05-22 20:32:00,53.8,43.2,29.96,WNW,295,11.0,18.0,67,0.00,,,0.00,meteohub,2013-05-23 03:32:00,
2013-05-22 20:37:00,53.8,43.5,29.96,WNW,292,10.0,21.0,68,0.00,,,0.00,meteohub,2013-05-23 03:37:00,
2013-05-22 20:42:00,53.6,43.3,29.96,West,276,16.0,21.0,68,0.00,,,0.00,meteohub,2013-05-23 03:42:00,
2013-05-22 20:47:00,53.4,43.5,29.96,West,264,9.0,17.0,69,0.00,,,0.00,meteohub,2013-05-23 03:47:00,
2013-05-22 20:52:00,53.4,43.5,29.96,WNW,284,8.0,16.0,69,0.00,,,0.00,meteohub,2013-05-23 03:52:00,
2013-05-22 20:57:00,53.2,43.0,29.96,West,274,11.0,16.0,68,0.00,,,0.00,meteohub,2013-05-23 03:57:00,
2013-05-22 21:01:00,53.2,43.3,29.97,West,278,8.0,17.0,69,0.00,,,0.00,meteohub,2013-05-23 04:01:00,
2013-05-22 21:02:00,53.2,43.3,29.97,WNW,289,12.0,17.0,69,0.00,,,0.00,meteohub,2013-05-23 04:02:00,
2013-05-22 21:07:00,53.1,43.2,29.97,WNW,283,11.0,17.0,69,0.00,,,0.00,meteohub,2013-05-23 04:07:00,
2013-05-22 21:08:00,53.1,43.2,29.97,WNW,288,12.0,17.0,69,0.00,,,0.00,meteohub,2013-05-23 04:08:00,
2013-05-22 21:09:00,53.1,43.2,29.97,West,262,10.0,17.0,69,0.00,,,0.00,meteohub,2013-05-23 04:09:00,
2013-05-22 21:14:00,52.9,43.0,29.97,West,265,11.0,17.0,69,0.00,,,0.00,meteohub,2013-05-23 04:14:00,
2013-05-22 21:19:00,52.9,43.3,29.97,WNW,286,8.0,16.0,70,0.00,,,0.00,meteohub,2013-05-23 04:19:00,
2013-05-22 21:24:00,52.9,43.3,29.97,West,264,8.0,16.0,70,0.00,,,0.00,meteohub,2013-05-23 04:24:00,
2013-05-22 21:29:00,52.7,43.2,29.97,West,278,12.0,16.0,70,0.00,,,0.00,meteohub,2013-05-23 04:29:00,
2013-05-22 21:34:00,52.5,43.0,29.97,West,270,9.0,13.0,70,0.00,,,0.00,meteohub,2013-05-23 04:34:00,
2013-05-22 21:39:00,52.5,43.0,29.97,WNW,289,15.0,15.0,70,0.00,,,0.00,meteohub,2013-05-23 04:39:00,
2013-05-22 21:44:00,52.5,43.3,29.97,West,275,11.0,16.0,71,0.00,,,0.00,meteohub,2013-05-23 04:44:00,
2013-05-22 21:49:00,52.5,43.3,29.97,West,269,8.0,16.0,71,0.00,,,0.00,meteohub,2013-05-23 04:49:00,
2013-05-22 21:54:00,52.5,43.3,29.98,West,280,8.0,15.0,71,0.00,,,0.00,meteohub,2013-05-23 04:54:00,
2013-05-22 21:59:00,52.5,43.3,29.98,West,272,12.0,16.0,71,0.00,,,0.00,meteohub,2013-05-23 04:59:00,
2013-05-22 22:05:00,52.3,43.2,29.98,West,276,6.0,16.0,71,0.00,,,0.00,meteohub,2013-05-23 05:05:00,
2013-05-22 22:10:00,52.3,43.2,29.98,West,271,11.0,16.0,71,0.00,,,0.00,meteohub,2013-05-23 05:10:00,
2013-05-22 22:15:00,52.3,43.2,29.98,West,276,7.0,16.0,71,0.00,,,0.00,meteohub,2013-05-23 05:15:00,
2013-05-22 22:20:00,52.3,43.2,29.98,West,272,8.0,16.0,71,0.00,,,0.00,meteohub,2013-05-23 05:20:00,
2013-05-22 22:25:00,52.3,42.8,29.98,West,276,11.0,16.0,70,0.00,,,0.00,meteohub,2013-05-23 05:25:00,
2013-05-22 22:30:00,52.3,42.8,29.98,West,261,9.0,16.0,70,0.00,,,0.00,meteohub,2013-05-23 05:30:00,
2013-05-22 22:35:00,52.3,42.8,29.99,West,272,9.0,15.0,70,0.00,,,0.00,meteohub,2013-05-23 05:35:00,
2013-05-22 22:40:00,52.3,42.8,29.99,West,280,6.0,15.0,70,0.00,,,0.00,meteohub,2013-05-23 05:40:00,
2013-05-22 22:45:00,52.2,42.6,29.99,West,274,6.0,15.0,70,0.00,,,0.00,meteohub,2013-05-23 05:45:00,
2013-05-22 22:50:00,52.2,42.6,29.99,West,269,7.0,15.0,70,0.00,,,0.00,meteohub,2013-05-23 05:50:00,
2013-05-22 22:55:00,52.2,42.6,29.98,WSW,258,6.0,15.0,70,0.00,,,0.00,meteohub,2013-05-23 05:55:00,
2013-05-22 23:00:00,52.0,42.8,29.99,WNW,285,9.0,15.0,71,0.00,,,0.00,meteohub,2013-05-23 06:00:00,
2013-05-22 23:05:00,52.0,42.4,29.99,West,275,6.0,13.0,70,0.00,,,0.00,meteohub,2013-05-23 06:05:00,
2013-05-22 23:10:00,52.0,42.4,29.98,West,265,6.0,14.0,70,0.00,,,0.00,meteohub,2013-05-23 06:10:00,
2013-05-22 23:15:00,52.0,42.4,29.98,West,280,9.0,14.0,70,0.00,,,0.00,meteohub,2013-05-23 06:15:00,
2013-05-22 23:20:00,52.0,42.4,29.98,West,268,7.0,14.0,70,0.00,,,0.00,meteohub,2013-05-23 06:20:00,
2013-05-22 23:25:00,52.0,42.4,29.99,West,273,10.0,14.0,70,0.00,,,0.00,meteohub,2013-05-23 06:25:00,
2013-05-22 23:30:00,52.0,42.4,29.99,WNW,283,13.0,14.0,70,0.00,,,0.00,meteohub,2013-05-23 06:30:00,
2013-05-22 23:35:00,52.0,42.1,29.99,WNW,285,12.0,16.0,69,0.00,,,0.00,meteohub,2013-05-23 06:35:00,
2013-05-22 23:40:00,52.2,42.3,29.99,West,278,7.0,16.0,69,0.00,,,0.00,meteohub,2013-05-23 06:40:00,
2013-05-22 23:45:00,52.2,42.3,29.99,West,272,10.0,16.0,69,0.00,,,0.00,meteohub,2013-05-23 06:45:00,
2013-05-22 23:50:00,52.2,42.3,29.99,WNW,303,9.0,13.0,69,0.00,,,0.00,meteohub,2013-05-23 06:50:00,
2013-05-22 23:55:00,52.2,41.9,29.99,WNW,290,11.0,13.0,68,0.00,,,0.00,meteohub,2013-05-23 06:55:00,